[Date Prev][Date Next][Thread Prev][Thread Next] - [Date Index][Thread Index][Author Index]

2 Line ISS Keps 5-31



ISS
1 25544U 98067A   05151.46717800  .00040859  00000-0  30473-3 0  5908
2 25544 051.6480 346.5793 0004875 186.2677 253.5077 15.72314250373051
----
Via the sarex mailing list at AMSAT.ORG courtesy of AMSAT-NA.
To unsubscribe, send "unsubscribe sarex" to Majordomo@amsat.org



AMSAT Top AMSAT Home